CZ-4B DEB, 43660

Orbit data source: Space-Track

CZ-4B DEB, 43660 is space debris in SSO originally from a launch on Wed, 24 Oct 2018 UTC launched from the Taiyaun Space Center, China (TSC). Debris objects in space refer to the collection of defunct objects orbiting the Earth. Examples of debris include non-operational satellites, rocket bodies, and fragments generated from explosions, collisions, or faulty payload assembly.

Loading next visibility...
Identifier
43660, 2018-081D
Orbit
SSO
Country
Flag of CNCN / PRC
Related business
Manufacturer
SAST
Mission
Spacecraft
Bus & Motor
Unknown
Mass
Unknown
Launch date (UTC)
2018-10-24 (7 years ago)
Launch vehicle
Unknown
Launch site
Taiyaun Space Center, China (TSC)
Object type
Payload
Rocket body
Debris
Shape & HBR
Unknown
Radar Cross Section
Small (<0.1 m²)

Expand to show TLE details & history
Last TLE update: 19 hours ago

TLE from 19 hours ago
0 CZ-4B DEB
1 43660U 18081D   25260.56750314  .00000119  00000-0  13110-3 0  9993
2 43660  99.1413 289.0120 0013489  21.1940 338.9775 13.90501045350022
Epoch: 2025-09-17T13:37Z
TLE epoch observation values (Epoch: 2025-09-17T13:37:12.271Z)
Latitude
-0.00001°
Longitude
87.96928°
Altitude
920.538 km
Speed
7.396 km/s
True Right ascension
19h 16m 02s
True Declination
0° 00' 00"
Sunlit
Object was in daylight at epoch
Visualization orbit readout
Latitude
Unknown
Longitude
Unknown
Altitude
Unknown
Speed
Unknown
Apparent Right ascension
Unknown
Apparent Declination
Unknown
Sunlit
N/A
Visualization observer readout
Local Sidereal Time
00:58:38
Azimuth
Unknown
Elevation
Unknown
Doppler factor
Unknown
Orbital elements
Apogee altitude
933.944 km
Perigee altitude
914.245 km
Semi-major axis
7,302.232 km
Eccentricity
0.00135
Inclination
99.1413°
RAAN
289.012°
Arg. of periapsis
21.194°
True anomaly
338.92196°
Mean anomaly
338.9775°
Eccentric anomaly
338.94974°
Mean motion
3.47824 °/min
Orbital period
103.5 mins
BSTAR
0.0001311
Loading maneuver chart data...
Computing Atmospheric mass density...
Loading historical data...
Loading historical data...
Loading historical data...
Loading historical data...
Loading historical data...
Loading historical data...
Loading historical data...

Documentation

Showing up to 5 results
|